Wetbulb
31.27 31.92 32.43 33.21 34.07 33.99 34.07 33.63 31.66 28.49 30.63 34.95 35.91 38.22 39.49 39.64 41.48 40.33 39.22 43.74 45.49 45.88 47.09 48.12 48.70 49.02 49.42 49.92 50.71 51.59 53.93 57.63 59.78 61.41 63.22 63.88 64.20 65.00
31.94 31.04 31.27 32.43 32.78 33.11 33.30 33.46 33.16 31.27 28.99 34.07 34.48 36.25 37.75 39.93 41.18 38.97 39.49 43.06 43.78 44.60 45.62 47.43 48.23 49.21 49.58 49.79 49.99 50.46 51.55 53.05 54.95 58.79 60.93 62.83 63.99 64.07
30.51 30.70 31.21 31.83 31.19 31.53 32.47 32.82 32.27 32.11 29.91 32.49 34.43 35.66 35.20 35.15 37.12 37.78 39.14 38.56 39.56 43.84 44.38 45.66 47.16 47.56 47.75 48.29 49.11 49.44 50.05 50.49 51.45 53.24 57.73 60.55 62.34 63.27
28.39 28.97 29.88 33.43 30.70 31.17 31.05 30.97 31.34 31.99 30.85 29.61 32.21 33.02 32.99 34.29 35.25 35.16 37.90 39.63 38.95 42.14 43.64 45.80 46.42 46.73 47.19 47.57 47.73 47.96 48.20 48.88 49.53 51.07 52.60 56.36 59.31 60.89
27.85 28.04 28.52 29.05 28.31 29.01 29.91 30.05 30.96 33.27 31.39 30.70 30.49 32.58 32.96 33.73 33.91 35.14 35.87 36.93 39.33 41.89 43.46 45.14 46.20 46.71 46.93 47.08 47.30 47.66 48.09 48.13 48.37 48.59 49.40 51.47 54.25 57.30
29.59 29.47 29.22 29.15 28.73 28.68 29.78 29.29 30.89 29.68 29.83 29.41 29.46 29.85 31.00 33.00 33.50 32.58 33.00 36.02 36.17 39.35 41.15 42.17 43.60 44.14 45.23 45.91 45.72 45.32 45.50 46.28 47.69 48.70 48.54 48.39 48.95 51.80
29.41 30.49 30.65 31.63 33.35 32.75 31.44 29.40 29.35 28.82 28.87 28.93 28.74 29.62 29.69 29.93 29.82 32.19 31.76 32.85 34.01 35.75 35.92 37.51 38.64 39.31 40.20 42.89 43.11 44.22 45.33 46.84 47.49 47.72 48.10 48.55 48.34 48.85
28.02 29.28 30.47 31.70 32.09 33.68 34.19 34.65 33.72 30.51 29.78 29.28 28.99 28.14 29.25 30.13 31.39 30.80 30.76 29.95 27.67 35.07 33.81 33.20 36.24 35.86 37.54 38.65 41.99 43.24 43.90 44.37 46.18 47.35 47.95 47.88 47.90 48.19
27.47 28.23 29.03 30.68 31.18 30.19 31.68 32.92 32.79 33.65 33.84 31.12 29.06 29.08 28.71 30.04 30.76 30.14 30.54 30.43 29.39 32.83 32.95 29.99 33.47 32.45 35.52 38.03 41.09 42.47 43.27 43.91 44.45 44.83 45.04 45.65 46.74 47.57
27.70 27.98 27.96 28.27 29.21 29.85 29.22 28.28 28.80 29.72 30.37 30.67 30.30 30.61 31.41 32.34 32.19 32.21 31.97 31.90 32.04 32.84 34.01 28.17 32.21 31.41 34.18 35.56 38.78 40.75 41.89 42.50 42.85 43.22 44.40 44.95 44.76 45.24
28.04 28.30 28.02 27.40 30.19 31.67 29.21 27.38 27.24 28.17 31.82 32.85 33.07 33.19 33.46 33.68 33.41 30.96 28.40 27.34 26.14 27.95 31.65 29.55 30.37 30.71 32.52 33.22 35.66 39.49 41.02 41.86 42.54 43.08 43.50 43.18 43.08 43.84
27.22 27.11 29.08 28.74 30.70 30.94 28.61 28.11 26.19 26.03 26.20 27.34 28.49 28.01 28.41 28.24 30.73 28.58 26.96 24.33 24.70 25.37 30.72 29.53 30.66 30.98 29.52 34.26 35.81 37.15 37.43 40.31 41.81 42.38 42.88 42.86 43.13 42.11
20.90 23.94 25.36 27.68 28.46 28.84 29.79 28.06 26.27 27.99 27.99 25.66 24.33 24.53 25.24 25.71 26.63 27.17 27.40 26.00 24.08 24.27 28.78 28.61 26.91 27.98 30.72 30.58 33.82 35.86 36.39 36.58 37.56 38.51 40.83 41.71 42.63 42.47
12.14 15.66 21.62 25.49 26.59 27.52 27.74 27.53 28.30 27.94 24.77 23.89 23.49 22.99 23.07 23.23 23.97 24.77 25.38 25.78 26.32 25.59 27.29 27.75 25.89 26.53 27.22 28.17 29.55 34.32 35.36 36.22 36.15 35.91 37.02 39.24 41.05 42.30
11.42 18.64 24.51 24.11 24.08 21.69 23.51 25.08 23.78 21.40 21.93 21.42 21.25 21.53 21.65 22.70 23.58 24.11 25.27 25.45 25.51 25.87 27.45 27.27 26.57 27.29 27.51 27.67 29.10 31.38 31.96 33.97 35.55 35.35 36.05 36.71 36.43 37.06
17.19 9.79 17.48 20.74 21.60 19.54 15.07 13.17 13.02 18.32 19.42 18.56 18.45 20.07 21.00 21.14 21.10 22.57 21.56 22.31 22.15 22.31 25.39 26.64 26.84 26.61 26.31 27.56 31.37 31.46 33.06 31.20 34.71 34.76 34.99 35.68 36.61 37.01
8.59 3.16 4.42 5.06 3.61 2.94 3.96 3.93 5.29 5.11 5.88 6.57 15.46 17.52 17.66 18.81 19.14 20.79 21.03 20.73 19.11 19.46 20.37 23.09 25.03 25.22 25.05 24.51 23.87 27.94 32.32 32.57 34.03 34.06 34.19 33.27 34.46 35.69
10.09 1.90 -0.77 -1.73 -0.91 -1.03 -0.09 0.74 -0.12 8.36 3.02 8.20 13.47 10.74 14.12 15.43 16.50 18.19 18.63 18.50 17.97 18.93 19.14 20.66 21.45 20.99 21.36 23.18 27.30 26.08 30.51 32.71 33.76 34.16 34.21 32.58 32.33 34.94
11.00 6.30 1.97 -0.94 -1.32 -1.15 -1.08 -0.61 1.49 3.12 1.38 6.15 2.67 9.09 11.58 12.95 13.77 14.01 15.60 16.63 16.85 17.83 19.25 20.71 20.17 18.66 16.04 14.93 22.09 29.47 27.20 32.03 33.28 33.09 33.94 33.24 32.18 33.69
10.33 8.10 7.21 4.63 2.54 1.38 0.23 -0.21 0.26 5.10 7.54 4.38 2.40 4.57 8.86 11.76 11.27 10.98 11.76 12.39 14.93 16.73 16.56 17.23 17.81 18.46 17.22 16.68 17.70 21.34 28.07 27.35 30.17 32.56 33.03 34.45 35.36 36.71
11.69 10.11 8.99 9.01 8.62 8.03 6.60 4.20 0.62 7.00 11.54 12.81 4.31 5.35 9.67 10.79 10.38 10.71 11.14 16.77 17.20 12.88 12.73 13.84 17.13 23.80 21.80 22.45 19.83 20.92 24.59 29.65 30.20 30.61 33.56 32.77 32.17 32.85
13.49 11.48 10.00 10.02 8.81 8.22 7.72 7.85 11.70 10.31 10.42 12.82 6.42 7.92 9.44 11.10 10.38 10.71 11.26 11.44 11.83 12.51 13.22 15.75 17.52 20.10 20.38 20.61 20.13 21.91 24.26 27.45 32.13 35.12 35.62 35.25 32.88 30.70
13.96 12.78 11.54 10.72 10.25 8.48 6.13 5.97 9.98 10.68 11.78 13.82 4.95 9.22 10.03 10.65 11.97 11.75 11.81 12.31 12.01 12.68 12.53 13.70 16.98 18.19 18.17 20.16 21.60 20.99 25.16 28.82 30.82 31.91 34.01 37.11 36.82 36.74
MSLP
1025.50 1025.33 1025.27 1025.39 1025.49 1025.42 1025.41 1025.62 1025.62 1025.37 1024.29 1022.93 1022.59 1022.42 1022.45 1022.29 1022.14 1022.06 1022.02 1021.87 1021.74 1021.41 1021.15 1020.73 1020.33 1020.16 1019.87 1019.68 1019.59 1019.55 1019.38 1019.19 1019.00 1018.91 1018.71 1018.56 1018.51 1018.62
1025.67 1025.41 1025.47 1025.51 1025.56 1025.54 1025.45 1025.66 1025.57 1025.80 1025.38 1023.96 1023.40 1023.28 1022.83 1022.44 1022.43 1022.33 1021.99 1021.71 1021.40 1021.05 1020.79 1020.46 1020.08 1019.87 1019.76 1019.55 1019.32 1019.19 1019.13 1018.97 1018.66 1018.43 1018.26 1018.07 1017.90 1017.82
1025.77 1025.59 1025.51 1025.34 1025.66 1025.68 1025.63 1025.40 1025.52 1025.77 1025.51 1024.79 1024.11 1023.85 1023.53 1023.05 1022.84 1022.48 1021.88 1021.51 1020.92 1020.45 1020.19 1020.09 1019.81 1019.58 1019.43 1019.17 1018.97 1018.72 1018.52 1018.35 1018.19 1017.92 1017.62 1017.45 1017.28 1017.16
1025.73 1025.52 1025.56 1025.42 1025.40 1025.55 1025.59 1025.30 1025.41 1025.47 1025.47 1025.00 1024.36 1024.08 1023.81 1023.25 1023.12 1022.81 1021.95 1021.34 1020.86 1020.32 1019.83 1019.43 1019.14 1018.81 1018.61 1018.41 1018.19 1017.98 1017.76 1017.66 1017.49 1017.32 1017.09 1016.89 1016.60 1016.50
1025.69 1025.54 1025.68 1025.50 1025.45 1025.08 1025.65 1025.14 1025.22 1025.19 1025.07 1024.88 1024.33 1023.96 1023.59 1023.42 1023.16 1022.70 1021.93 1021.07 1020.53 1019.86 1019.27 1018.73 1018.39 1018.07 1017.80 1017.57 1017.41 1017.21 1016.86 1016.68 1016.57 1016.42 1016.29 1016.11 1016.02 1015.77
1025.51 1025.49 1025.30 1025.27 1024.85 1025.01 1025.13 1024.89 1024.89 1025.03 1024.88 1024.66 1024.37 1024.03 1023.71 1023.42 1023.10 1022.38 1021.41 1020.82 1020.18 1019.71 1019.14 1018.68 1018.05 1017.45 1017.04 1016.78 1016.48 1016.22 1015.96 1015.76 1015.58 1015.30 1015.37 1015.16 1015.12 1014.99
1025.37 1025.14 1024.87 1024.55 1024.31 1024.46 1024.47 1024.61 1024.79 1024.89 1024.80 1024.63 1024.29 1023.85 1023.56 1023.33 1022.97 1022.26 1021.42 1020.60 1019.94 1019.59 1018.72 1018.19 1017.65 1017.01 1016.53 1016.13 1015.77 1015.43 1015.05 1014.81 1014.59 1014.43 1014.23 1014.14 1013.93 1013.88
1025.25 1024.87 1024.55 1024.27 1024.27 1024.09 1023.96 1023.95 1024.06 1024.16 1024.26 1024.23 1024.01 1023.71 1023.34 1023.17 1022.78 1022.27 1021.59 1020.74 1019.78 1019.28 1018.61 1017.71 1017.89 1016.84 1016.43 1015.87 1015.27 1014.91 1014.61 1014.28 1013.89 1013.45 1013.21 1012.97 1012.86 1012.87
1025.05 1024.72 1024.39 1024.06 1024.07 1024.13 1024.02 1023.87 1023.88 1023.79 1023.63 1023.65 1023.46 1023.37 1023.00 1022.88 1022.49 1021.91 1021.43 1020.73 1019.95 1019.53 1019.15 1016.66 1017.70 1016.11 1015.90 1014.89 1014.41 1013.93 1013.58 1013.29 1012.98 1012.68 1012.43 1012.20 1012.03 1011.91
1024.86 1024.50 1024.25 1024.17 1024.17 1023.94 1023.81 1023.82 1023.98 1023.99 1023.78 1023.45 1023.21 1022.99 1022.72 1022.33 1022.07 1021.58 1020.99 1020.22 1019.50 1019.10 1018.95 1016.55 1016.75 1015.40 1014.76 1013.94 1013.57 1013.18 1012.78 1012.35 1011.95 1011.68 1011.35 1011.15 1010.95 1010.85
1024.61 1024.29 1024.13 1023.96 1023.79 1023.46 1023.43 1023.75 1023.70 1023.45 1023.15 1022.77 1022.56 1022.36 1022.08 1021.73 1021.38 1020.89 1020.44 1019.94 1018.69 1018.27 1018.22 1017.15 1015.86 1014.75 1014.03 1012.66 1012.26 1011.64 1011.07 1010.98 1010.80 1010.55 1010.36 1010.20 1010.14 1010.05
1024.38 1024.23 1023.93 1023.63 1023.38 1023.26 1023.55 1023.54 1023.33 1023.12 1022.92 1022.61 1022.39 1022.21 1021.96 1021.53 1020.98 1020.74 1020.44 1019.93 1019.27 1017.85 1016.76 1016.97 1015.75 1015.70 1012.46 1010.83 1010.47 1010.40 1010.30 1010.05 1009.75 1009.59 1009.36 1009.15 1009.11 1008.90
1024.14 1024.12 1024.10 1023.91 1023.62 1023.47 1023.35 1023.24 1023.02 1022.63 1022.43 1022.41 1022.16 1021.81 1021.44 1021.08 1020.65 1020.40 1020.17 1019.91 1019.33 1018.59 1017.69 1017.48 1016.37 1015.84 1014.48 1011.09 1010.27 1010.20 1010.02 1009.56 1009.19 1008.72 1008.40 1008.20 1008.07 1007.81
1024.09 1024.01 1024.08 1023.84 1023.51 1023.24 1023.33 1023.21 1022.85 1022.56 1022.50 1022.27 1021.88 1021.55 1021.25 1020.94 1020.63 1020.27 1019.80 1019.39 1019.09 1018.37 1017.55 1017.18 1015.95 1015.33 1013.78 1011.05 1009.00 1009.09 1008.74 1008.47 1008.21 1007.72 1007.41 1007.12 1006.90 1006.52
1023.68 1023.62 1023.75 1023.77 1023.78 1024.09 1023.79 1023.27 1023.29 1023.21 1022.79 1022.45 1022.11 1021.78 1021.55 1020.99 1020.29 1019.68 1019.13 1018.69 1018.14 1017.33 1016.55 1015.99 1015.23 1014.15 1013.17 1010.82 1008.36 1007.76 1007.59 1007.31 1007.08 1006.66 1006.47 1006.15 1005.83 1005.62
1023.87 1024.31 1024.40 1023.96 1024.03 1024.23 1024.26 1024.35 1024.18 1023.96 1023.54 1023.28 1022.77 1022.19 1021.47 1020.72 1020.15 1019.74 1019.03 1018.21 1017.36 1016.03 1015.44 1014.79 1014.02 1013.28 1011.69 1010.30 1008.55 1006.36 1006.51 1005.78 1005.66 1005.40 1005.28 1004.81 1004.64 1004.37
1023.85 1024.42 1024.75 1024.95 1025.17 1025.08 1024.78 1024.61 1024.50 1024.26 1024.13 1023.73 1023.24 1022.43 1021.74 1021.06 1020.20 1019.65 1018.85 1018.04 1017.11 1015.70 1014.49 1013.61 1012.99 1012.27 1011.04 1009.81 1007.64 1006.58 1005.01 1004.22 1004.26 1004.11 1004.10 1003.28 1003.02 1002.93
1023.86 1024.92 1025.15 1025.45 1025.55 1025.60 1025.50 1025.31 1024.63 1024.26 1023.98 1023.62 1023.07 1022.75 1022.19 1021.39 1020.31 1019.29 1018.75 1017.89 1016.77 1015.51 1014.23 1013.11 1012.09 1010.74 1008.93 1006.99 1006.99 1005.14 1004.22 1002.88 1002.58 1002.31 1002.25 1001.87 1001.33 1001.30
1023.81 1024.57 1025.00 1025.35 1025.53 1025.68 1025.74 1025.51 1025.14 1024.21 1023.79 1023.35 1023.05 1022.62 1022.04 1021.34 1020.51 1019.61 1018.70 1017.80 1016.58 1015.29 1013.81 1012.64 1011.76 1010.71 1008.49 1006.58 1005.42 1004.77 1003.26 1002.18 1001.31 1000.65 1000.49 1000.31 999.71 999.12
1023.80 1024.37 1024.76 1025.14 1025.40 1025.54 1025.13 1025.01 1024.44 1024.03 1023.57 1023.13 1022.58 1022.19 1021.73 1021.22 1020.40 1019.44 1018.49 1017.62 1016.22 1014.67 1013.24 1012.20 1011.36 1010.08 1009.17 1007.06 1004.45 1003.03 1003.37 1001.96 1000.84 999.40 999.02 998.74 998.08 997.50
1023.66 1024.10 1024.14 1024.48 1024.65 1024.60 1024.46 1024.27 1024.06 1023.80 1023.04 1022.74 1022.21 1021.85 1021.38 1020.90 1020.07 1019.13 1018.11 1016.90 1015.71 1014.52 1013.00 1011.77 1010.53 1009.37 1008.17 1006.32 1003.92 1001.56 1000.01 999.91 999.54 998.99 997.68 997.19 996.55 996.13
1023.29 1023.66 1023.81 1024.07 1024.31 1024.32 1024.21 1024.11 1023.87 1023.47 1022.99 1022.42 1021.93 1021.53 1021.04 1020.48 1019.61 1018.70 1017.69 1016.51 1015.29 1014.12 1012.64 1011.23 1009.47 1008.40 1007.18 1005.35 1003.06 1000.94 998.60 997.68 997.13 996.30 996.11 995.90 995.63 994.67
1023.01 1023.34 1023.50 1023.68 1023.97 1024.01 1024.02 1023.88 1023.68 1023.22 1022.67 1022.11 1021.57 1021.23 1020.66 1020.01 1019.05 1018.20 1017.31 1016.25 1015.15 1013.59 1012.31 1010.49 1008.87 1008.12 1006.46 1004.66 1002.89 1000.78 998.56 996.53 995.68 995.08 994.39 994.18 993.70 993.18
Wind_Speed
3 3 1 2 2 2 2 1 1 2 3 4 0 5 6 5 6 6 5 9 17 18 18 17 15 16 16 16 17 16 15 14 13 14 14 15 17 18
3 2 2 1 2 2 1 2 1 2 3 3 3 7 8 8 7 6 7 11 13 18 19 17 16 16 16 16 17 17 17 16 17 17 17 17 18 19
4 3 4 3 2 3 3 2 2 3 5 5 3 6 7 8 10 7 7 9 9 17 21 20 18 18 18 18 18 18 19 20 20 20 19 18 18 20
5 4 5 4 3 4 3 4 3 4 4 10 7 6 5 5 7 10 9 9 9 15 22 21 22 22 22 21 20 20 20 20 21 20 20 20 19 20
5 5 5 4 4 3 5 4 3 5 4 5 8 4 4 5 9 10 10 9 9 16 20 19 19 19 19 20 20 19 18 20 21 21 21 21 21 22
4 5 5 5 4 4 5 4 4 3 3 4 5 7 6 6 6 8 9 7 9 10 13 17 21 22 24 24 24 22 21 22 22 22 23 22 22 23
5 5 6 7 11 10 5 3 4 4 5 6 7 7 7 7 8 8 11 10 10 10 10 8 8 8 9 14 16 18 20 19 20 22 23 24 23 23
6 6 5 9 9 13 14 15 11 7 8 7 8 9 11 10 9 9 11 11 13 3 8 12 10 11 11 11 21 24 25 25 22 20 20 22 23 23
6 6 6 6 7 4 9 14 12 15 15 10 10 10 12 12 12 13 12 12 15 10 14 19 10 15 11 13 24 26 26 27 25 26 25 22 21 22
7 6 5 5 5 8 6 4 4 6 8 8 10 11 12 11 12 12 13 14 13 11 11 19 9 15 13 13 28 28 28 29 30 30 28 24 24 23
6 5 5 5 10 14 6 4 7 8 11 16 17 19 21 23 20 11 10 11 13 11 9 13 8 14 15 15 14 29 29 28 28 28 28 29 28 27
4 4 11 10 14 13 6 6 7 5 6 8 7 9 12 11 18 10 8 10 11 10 3 7 10 12 11 6 8 7 8 17 21 24 26 27 27 14
2 2 4 13 14 13 14 6 7 10 9 6 6 6 7 6 6 7 9 8 10 12 14 13 12 13 14 18 13 13 13 13 13 14 22 24 22 19
2 1 3 11 13 12 10 12 13 12 5 5 6 6 6 7 8 9 11 11 11 15 15 16 15 14 16 19 20 12 11 11 12 13 12 18 25 25
3 5 9 9 10 7 9 12 12 7 6 7 7 6 7 8 11 10 10 12 13 14 13 15 14 15 15 19 21 16 18 12 13 11 11 11 10 11
3 3 4 5 6 6 5 5 3 4 6 8 8 8 8 8 9 8 10 10 10 11 12 14 14 15 15 15 18 17 14 15 9 11 11 12 13 13
4 2 3 3 2 3 3 3 3 2 2 3 6 8 10 9 9 9 9 10 11 12 13 11 12 15 15 18 18 16 15 16 13 12 14 15 14 14
3 2 0 0 0 2 2 3 2 6 3 3 4 4 7 9 10 10 9 9 11 11 12 12 13 14 14 15 21 15 15 17 14 15 15 14 16 14
3 2 2 1 2 2 2 2 2 3 3 3 3 5 6 7 12 10 10 10 11 11 12 12 12 13 15 18 14 25 16 15 14 15 13 15 17 16
2 2 2 1 1 1 2 2 3 4 4 4 3 4 5 7 8 9 9 11 11 12 12 12 11 11 14 19 20 18 26 18 15 13 14 13 16 26
2 2 2 1 1 2 2 3 2 4 5 7 3 3 6 6 8 9 10 19 20 11 12 13 13 29 17 16 15 17 15 24 26 19 12 12 15 14
2 2 2 1 2 2 2 2 4 4 5 6 3 4 5 6 8 10 10 11 12 11 12 13 14 13 13 13 16 22 16 12 17 28 32 27 14 14
3 2 1 1 2 2 2 2 3 4 6 7 3 5 6 8 9 9 9 10 11 12 13 15 13 13 13 11 18 14 21 14 10 10 11 20 25 29
Wind_Direction
329 356 8 324 347 346 342 329 175 308 317 308 345 34 6 360 356 344 335 319 319 315 311 312 309 304 304 300 299 297 299 298 290 285 278 250 228 228
303 340 331 304 303 282 278 289 284 228 263 311 344 340 340 338 331 342 318 315 305 307 305 304 304 303 299 296 294 294 292 289 288 282 275 270 257 235
308 293 278 277 283 297 289 245 260 251 265 284 297 326 326 327 316 312 313 310 302 304 304 301 300 297 294 291 288 285 285 284 279 276 274 268 267 260
310 313 297 291 275 252 260 258 251 259 268 282 290 296 293 304 307 304 304 297 293 293 293 294 294 290 285 281 278 274 271 271 274 277 275 270 261 260
296 296 290 299 292 301 280 273 275 285 280 285 293 296 302 318 311 298 291 290 283 285 286 286 289 296 298 293 288 283 272 264 264 266 268 265 264 260
279 270 268 270 282 282 284 284 277 280 292 298 304 301 291 289 276 293 298 301 308 306 299 292 289 288 285 284 283 280 274 267 262 259 261 259 260 260
278 273 269 254 259 266 274 276 292 295 292 288 286 289 297 300 296 303 295 305 301 301 289 286 286 290 291 283 273 272 273 271 262 258 256 260 259 256
292 283 276 290 282 279 279 280 269 257 264 274 282 282 289 292 295 298 298 302 311 269 319 296 298 288 286 280 281 279 283 284 287 277 259 252 254 257
290 286 286 290 313 310 297 291 300 296 292 295 291 289 292 291 293 291 287 284 286 295 298 289 296 284 285 278 278 276 274 272 272 271 273 275 267 257
273 273 269 283 286 291 280 269 294 286 279 280 277 281 279 281 282 284 286 283 282 282 277 282 292 281 283 279 279 276 273 271 268 269 270 270 273 272
294 296 290 272 280 286 299 323 285 276 285 289 296 301 299 295 293 295 288 291 292 291 281 284 283 290 285 281 274 268 265 265 266 266 267 269 274 275
285 302 307 306 305 308 321 293 289 299 299 293 298 305 301 290 295 288 290 285 290 298 267 267 298 309 294 250 258 260 266 271 270 268 266 268 269 267
262 318 324 312 307 307 303 313 300 300 312 313 302 297 297 293 298 297 295 291 290 281 290 296 294 294 270 281 275 279 277 277 273 271 273 271 267 274
223 267 299 307 302 311 317 304 307 322 315 304 305 305 312 311 304 298 291 282 272 272 284 281 277 277 280 280 279 268 264 263 257 260 263 264 262 264
195 264 329 326 334 349 326 341 1 338 319 311 313 318 317 306 302 298 295 290 283 278 275 275 272 279 269 277 275 267 274 261 261 262 261 257 255 258
40 6 296 348 359 13 7 354 330 328 338 333 322 313 313 311 306 307 303 303 296 296 288 282 280 282 282 277 287 274 261 262 253 253 255 255 255 249
119 44 30 18 7 340 338 334 325 339 331 284 311 317 319 314 308 310 302 305 296 302 302 300 290 281 275 284 281 280 270 258 251 253 251 256 253 251
104 117 25 6 5 307 325 311 308 335 286 285 288 290 304 311 312 312 309 304 300 301 300 302 304 302 298 289 280 275 269 261 252 250 247 253 258 248
123 148 152 175 259 296 295 301 284 284 274 280 271 282 292 305 316 305 305 303 300 300 299 301 303 303 305 290 289 280 273 278 258 249 245 249 258 256
128 143 156 173 244 254 293 283 297 301 288 273 286 277 289 300 307 303 302 301 300 306 307 305 299 305 293 289 290 279 270 279 280 256 249 248 254 262
152 145 160 172 266 284 290 303 284 297 313 316 282 291 303 306 305 303 302 314 320 310 310 307 303 306 290 283 278 282 280 255 251 254 258 261 268 273
155 162 179 182 237 278 305 303 309 308 301 311 283 304 303 306 304 309 309 314 314 311 307 305 313 307 299 299 295 295 288 275 261 246 242 245 254 264
163 173 181 217 248 257 281 284 292 296 298 303 289 307 308 316 313 312 312 315 314 318 325 319 325 317 312 312 311 309 303 274 265 261 253 243 249 255